Overview Statistics Trail Chart Weather Telemetry Raw packets
 

This is the latest recevied weather packets stored in our database for station/object DL3GCR-10. If no packets are shown the sender has not sent any weather packets the latest 10 day(s).

<< 1 2 3 4 >>
Time Temp. Humidity Pressure Rain* Wind** Luminosity Snow
1788575004 18.33° C 66% 1022.7 hPa - - - -
1788574104 19.44° C 68% 1023 hPa - - - -
1788573204 20° C 67% 1022.2 hPa - - - -
1788572303 21.11° C 69% 1021.8 hPa - - - -
1788571402 22.22° C 60% 1021 hPa - - - -
1788570502 22.78° C 59% 1020.7 hPa - - - -
1788569602 22.78° C 58% 1020.5 hPa - - - -
1788568702 22.78° C 59% 1020.5 hPa - - - -
1788567802 22.78° C 58% 1020.3 hPa - - - -
1788566901 22.78° C 58% 1020.1 hPa - - - -
1788566008 22.78° C 57% 1020.1 hPa - - - -
1788565108 22.78° C 57% 1019.9 hPa - - - -
1788564207 22.78° C 57% 1019.8 hPa - - - -
1788563307 22.78° C 56% 1019.9 hPa - - - -
1788562407 22.78° C 56% 1019.6 hPa - - - -
1788561507 23.33° C 56% 1019.6 hPa - - - -
1788560607 23.33° C 55% 1019.5 hPa - - - -
1788559706 23.33° C 54% 1019.3 hPa - - - -
1788558806 23.33° C 53% 1018.9 hPa - - - -
1788557906 23.33° C 54% 1018.5 hPa - - - -
1788557006 23.33° C 53% 1018.3 hPa - - - -
1788556106 23.33° C 52% 1018.1 hPa - - - -
1788555206 23.89° C 52% 1018 hPa - - - -
1788554305 23.89° C 51% 1017.9 hPa - - - -
1788553405 24.44° C 50% 1017.9 hPa - - - -

* Rain since midnight (hover to see other rain measurements)
** Current wind speed in m/s (hover to see current wind gust speed)